Hourly Weather Kozin

Today, 22 October, Thursday

Time Temperature Precipitation Wind Pressure Humidity
00:00 +10°C° 0 mm 4 mps 748 mmHg 82%
01:00 +8°C° 0 mm 5 mps 748 mmHg 83%
02:00 +8°C° 0 mm 5 mps 748 mmHg 82%
03:00 +8°C° 0 mm 5 mps 748 mmHg 82%
04:00 +8°C° 0 mm 5 mps 747 mmHg 81%
05:00 +9°C° 0 mm 5 mps 748 mmHg 79%
06:00 +9°C° 0 mm 5 mps 748 mmHg 77%
07:00 +10°C° 0 mm 6 mps 748 mmHg 75%
08:00 +13°C° 0 mm 6 mps 748 mmHg 71%
09:00 +15°C° 0 mm 7 mps 748 mmHg 67%
10:00 +16°C° 0 mm 8 mps 749 mmHg 62%
11:00 +17°C° 0 mm 8 mps 749 mmHg 62%
12:00 +17°C° 0 mm 8 mps 749 mmHg 62%
13:00 +18°C° 0 mm 7 mps 749 mmHg 62%
14:00 +17°C° 0 mm 6 mps 749 mmHg 67%
15:00 +16°C° 0 mm 5 mps 749 mmHg 72%
16:00 +16°C° 0 mm 3 mps 749 mmHg 76%
17:00 +14°C° 0 mm 3 mps 749 mmHg 79%
18:00 +13°C° 0 mm 3 mps 749 mmHg 83%
19:00 +13°C° 0 mm 3 mps 749 mmHg 86%
20:00 +13°C° 0 mm 3 mps 749 mmHg 86%
21:00 +12°C° 0 mm 3 mps 749 mmHg 87%
22:00 +12°C° 0 mm 3 mps 749 mmHg 88%
23:00 +12°C° 0 mm 3 mps 749 mmHg 88%

Tomorrow, 23 October, Friday

Time Temperature Precipitation Wind Pressure Humidity
00:00 +12°C° 0 mm 3 mps 749 mmHg 89%
01:00 +12°C° 0 mm 3 mps 749 mmHg 90%
02:00 +12°C° 0 mm 4 mps 749 mmHg 87%
03:00 +12°C° 0 mm 4 mps 748 mmHg 85%
04:00 +13°C° 0 mm 4 mps 748 mmHg 83%
05:00 +13°C° 0 mm 4 mps 748 mmHg 83%
06:00 +13°C° 0 mm 4 mps 748 mmHg 83%
07:00 +13°C° 0 mm 4 mps 747 mmHg 82%
08:00 +13°C° 0.1 mm 5 mps 747 mmHg 82%
09:00 +13°C° 0.1 mm 5 mps 747 mmHg 81%
10:00 +14°C° 0.1 mm 5 mps 747 mmHg 81%
11:00 +14°C° 0.1 mm 5 mps 747 mmHg 80%
12:00 +14°C° 0.1 mm 4 mps 747 mmHg 80%
13:00 +14°C° 0.1 mm 4 mps 747 mmHg 80%
14:00 +14°C° 0 mm 4 mps 747 mmHg 82%
15:00 +14°C° 0 mm 3 mps 747 mmHg 84%
16:00 +15°C° 0 mm 2 mps 747 mmHg 86%
17:00 +14°C° 0 mm 2 mps 747 mmHg 88%
18:00 +14°C° 0 mm 2 mps 747 mmHg 90%
19:00 +13°C° 0 mm 2 mps 747 mmHg 93%
20:00 +13°C° 0 mm 2 mps 747 mmHg 94%
21:00 +13°C° 0 mm 2 mps 747 mmHg 95%
22:00 +13°C° 0 mm 2 mps 747 mmHg 96%
23:00 +13°C° 0.1 mm 1 mps 747 mmHg 96%

Day after tomorrow, 24 October, Saturday

Time Temperature Precipitation Wind Pressure Humidity
00:00 +13°C° 0.1 mm 1 mps 747 mmHg 96%
01:00 +13°C° 0.1 mm 1 mps 747 mmHg 96%
02:00 +12°C° 0.4 mm 0 mps 747 mmHg 96%
03:00 +12°C° 0.4 mm 0 mps 746 mmHg 97%
04:00 +12°C° 0.4 mm 0 mps 746 mmHg 97%
05:00 +12°C° 0.3 mm 0 mps 746 mmHg 97%
06:00 +13°C° 0.3 mm 1 mps 746 mmHg 97%
07:00 +13°C° 0.3 mm 1 mps 746 mmHg 96%
08:00 +13°C° 0.5 mm 2 mps 746 mmHg 92%
09:00 +13°C° 0.5 mm 3 mps 746 mmHg 88%
10:00 +14°C° 0.5 mm 4 mps 746 mmHg 84%
11:00 +13°C° 1.5 mm 4 mps 746 mmHg 86%
12:00 +13°C° 1.5 mm 3 mps 746 mmHg 87%
13:00 +13°C° 1.5 mm 3 mps 746 mmHg 88%
14:00 +13°C° 0.6 mm 3 mps 747 mmHg 85%
15:00 +13°C° 0.6 mm 4 mps 747 mmHg 83%
16:00 +13°C° 0.6 mm 5 mps 747 mmHg 80%
17:00 +12°C° 0 mm 5 mps 748 mmHg 81%
18:00 +10°C° 0 mm 5 mps 749 mmHg 82%
19:00 +10°C° 0 mm 5 mps 749 mmHg 84%
20:00 +9°C° 0 mm 5 mps 750 mmHg 85%
21:00 +8°C° 0 mm 4 mps 750 mmHg 86%
22:00 +8°C° 0 mm 4 mps 750 mmHg 88%
23:00 +8°C° 0 mm 3 mps 751 mmHg 89%

25 October, Sunday

Time Temperature Precipitation Wind Pressure Humidity
00:00 +8°C° 0 mm 3 mps 751 mmHg 90%
01:00 +7°C° 0 mm 3 mps 751 mmHg 91%
02:00 +7°C° 0 mm 3 mps 751 mmHg 92%
03:00 +7°C° 0 mm 3 mps 751 mmHg 93%
04:00 +6°C° 0 mm 2 mps 752 mmHg 94%
05:00 +6°C° 0 mm 2 mps 752 mmHg 94%
06:00 +6°C° 0 mm 2 mps 752 mmHg 94%
07:00 +6°C° 0 mm 2 mps 752 mmHg 94%
08:00 +7°C° 0 mm 2 mps 752 mmHg 87%
09:00 +9°C° 0 mm 2 mps 752 mmHg 80%
10:00 +10°C° 0 mm 2 mps 753 mmHg 73%
11:00 +12°C° 0 mm 2 mps 752 mmHg 70%
12:00 +13°C° 0 mm 2 mps 752 mmHg 66%
13:00 +13°C° 0 mm 2 mps 752 mmHg 62%
14:00 +13°C° 0 mm 2 mps 752 mmHg 66%
15:00 +12°C° 0 mm 2 mps 752 mmHg 70%
16:00 +10°C° 0 mm 2 mps 752 mmHg 74%
17:00 +10°C° 0 mm 2 mps 752 mmHg 76%
18:00 +9°C° 0 mm 3 mps 752 mmHg 78%
19:00 +8°C° 0 mm 3 mps 752 mmHg 80%
20:00 +8°C° 0 mm 3 mps 752 mmHg 81%
21:00 +8°C° 0 mm 3 mps 752 mmHg 82%
22:00 +8°C° 0 mm 3 mps 752 mmHg 83%
23:00 +7°C° 0 mm 3 mps 752 mmHg 85%

26 October, Monday

Time Temperature Precipitation Wind Pressure Humidity
00:00 +7°C° 0 mm 3 mps 752 mmHg 87%
01:00 +7°C° 0 mm 3 mps 752 mmHg 89%
02:00 +5°C° 0 mm 3 mps 752 mmHg 89%
03:00 +5°C° 0 mm 3 mps 752 mmHg 90%
04:00 +5°C° 0 mm 3 mps 751 mmHg 91%
05:00 +5°C° 0 mm 3 mps 751 mmHg 91%
06:00 +5°C° 0 mm 4 mps 751 mmHg 91%
07:00 +5°C° 0 mm 4 mps 751 mmHg 90%
08:00 +6°C° 0 mm 4 mps 751 mmHg 86%
09:00 +8°C° 0 mm 4 mps 751 mmHg 81%
10:00 +9°C° 0 mm 5 mps 751 mmHg 76%
11:00 +10°C° 0 mm 5 mps 751 mmHg 73%
12:00 +12°C° 0 mm 5 mps 751 mmHg 71%
13:00 +13°C° 0 mm 5 mps 751 mmHg 68%
14:00 +13°C° 0 mm 5 mps 750 mmHg 71%
15:00 +12°C° 0 mm 5 mps 750 mmHg 74%
16:00 +11°C° 0 mm 4 mps 750 mmHg 77%
17:00 +10°C° 0 mm 5 mps 750 mmHg 79%
18:00 +9°C° 0 mm 5 mps 750 mmHg 82%
19:00 +9°C° 0 mm 5 mps 750 mmHg 84%
20:00 +8°C° 0 mm 5 mps 750 mmHg 85%
21:00 +8°C° 0 mm 5 mps 750 mmHg 85%
22:00 +8°C° 0 mm 4 mps 751 mmHg 86%
23:00 +7°C° 0 mm 4 mps 751 mmHg 87%

27 October, Tuesday

Time Temperature Precipitation Wind Pressure Humidity
00:00 +7°C° 0 mm 4 mps 751 mmHg 88%
01:00 +6°C° 0 mm 4 mps 751 mmHg 88%
02:00 +6°C° 0 mm 4 mps 751 mmHg 90%
03:00 +6°C° 0 mm 4 mps 751 mmHg 91%
04:00 +5°C° 0 mm 3 mps 750 mmHg 92%
05:00 +5°C° 0 mm 3 mps 751 mmHg 93%
06:00 +5°C° 0 mm 3 mps 751 mmHg 93%
07:00 +5°C° 0 mm 3 mps 751 mmHg 93%
08:00 +7°C° 0 mm 3 mps 751 mmHg 88%
09:00 +8°C° 0 mm 3 mps 751 mmHg 83%
10:00 +10°C° 0 mm 3 mps 751 mmHg 77%
11:00 +11°C° 0 mm 3 mps 751 mmHg 75%
12:00 +12°C° 0 mm 3 mps 751 mmHg 72%
13:00 +13°C° 0 mm 3 mps 751 mmHg 70%
14:00 +12°C° 0 mm 3 mps 751 mmHg 73%
15:00 +13°C° 0 mm 2 mps 751 mmHg 77%
16:00 +12°C° 0 mm 2 mps 751 mmHg 80%
17:00 +12°C° 0 mm 2 mps 751 mmHg 83%
18:00 +12°C° 0 mm 2 mps 751 mmHg 85%
19:00 +10°C° 0 mm 2 mps 751 mmHg 87%
20:00 +10°C° 0 mm 2 mps 752 mmHg 89%
21:00 +10°C° 0 mm 2 mps 752 mmHg 90%
22:00 +9°C° 0 mm 2 mps 752 mmHg 91%
23:00 +10°C° 0 mm 1 mps 752 mmHg 92%

28 October, Wednesday

Time Temperature Precipitation Wind Pressure Humidity
00:00 +10°C° 0 mm 1 mps 753 mmHg 92%
01:00 +10°C° 0 mm 1 mps 753 mmHg 93%
02:00 +9°C° 0 mm 1 mps 753 mmHg 93%
03:00 +9°C° 0 mm 1 mps 753 mmHg 93%
04:00 +9°C° 0 mm 1 mps 753 mmHg 93%
05:00 +9°C° 0 mm 1 mps 753 mmHg 93%
06:00 +9°C° 0 mm 1 mps 754 mmHg 93%
07:00 +8°C° 0 mm 2 mps 754 mmHg 94%
08:00 +9°C° 0 mm 2 mps 754 mmHg 89%
09:00 +12°C° 0 mm 2 mps 754 mmHg 84%
10:00 +13°C° 0 mm 2 mps 754 mmHg 79%
11:00 +14°C° 0 mm 2 mps 754 mmHg 75%
12:00 +15°C° 0 mm 2 mps 754 mmHg 71%
13:00 +16°C° 0 mm 2 mps 754 mmHg 68%
14:00 +15°C° 0 mm 2 mps 754 mmHg 72%
15:00 +14°C° 0 mm 2 mps 754 mmHg 76%
16:00 +14°C° 0 mm 1 mps 754 mmHg 80%
17:00 +13°C° 0 mm 2 mps 754 mmHg 83%
18:00 +12°C° 0 mm 2 mps 754 mmHg 85%
19:00 +12°C° 0 mm 2 mps 754 mmHg 87%
20:00 +12°C° 0 mm 2 mps 754 mmHg 88%
21:00 +10°C° 0 mm 2 mps 753 mmHg 89%
22:00 +10°C° 0 mm 2 mps 753 mmHg 90%
23:00 +10°C° 0 mm 3 mps 753 mmHg 91%
Show more